CW7218 Weather Reports


time (UTC)temp
F
wind
direction
speed
knots
gust
knots
rain 1hr
in
rain 24hr
in
rain mn
in
humidity
%
barometer
mb
20260505223017 50 45 2.6 5.2 0.00 0.01 0.01 83 1010.1
20260505222017 50 68 2.6 6.1 0.00 0.01 0.01 82 1010.1
20260505221017 51 68 1.7 4.3 0.00 0.01 0.01 81 1010.5
20260505220037 51 68 0.9 2.6 0.00 0.01 0.01 80 1010.6
20260505215017 51 338 0.9 2.6 0.00 0.01 0.01 80 1010.5
20260505214017 51 45 2.6 4.3 0.00 0.01 0.01 80 1010.4
20260505213017 51 45 2.6 4.3 0.00 0.01 0.01 79 1010.4
20260505212017 51 23 1.7 4.3 0.00 0.01 0.01 78 1010.4
20260505211037 51 23 1.7 3.5 0.00 0.01 0.01 79 1010.2
20260505210017 51 338 0.9 3.5 0.00 0.01 0.01 79 1010.1
20260505205017 51 338 1.7 4.3 0.00 0.01 0.01 78 1010.0
20260505204017 51 315 2.6 4.3 0.00 0.01 0.01 79 1009.7
20260505203017 52 338 1.7 5.2 0.00 0.01 0.01 78 1009.5
20260505202057 52 0 1.7 3.5 0.00 0.02 0.01 78 1009.6
20260505201017 52 0 2.6 6.1 0.00 0.06 0.01 78 1009.1
20260505200017 52 0 1.7 3.5 0.00 0.09 0.01 78 1009.0
20260505195037 52 0 3.5 5.2 0.00 0.24 0.01 78 1008.8
20260505194017 52 0.0 2.6 0.00 0.28 0.01 79 1008.8
20260505193017 53 0.0 1.7 0.00 0.28 0.01 80 1008.9
20260505192016 52 158 0.9 2.6 0.00 0.28 0.01 80 1008.7
20260505191017 52 158 1.7 3.5 0.00 0.28 0.01 79 1008.7
20260505190037 53 180 2.6 5.2 0.00 0.28 0.01 79 1008.7
20260505185017 53 158 2.6 3.5 0.00 0.28 0.01 80 1008.7
20260505184016 53 158 2.6 5.2 0.00 0.28 0.01 80 1008.7
20260505183017 54 158 3.5 7.8 0.00 0.28 0.01 77 1008.8
20260505182016 55 90 2.6 6.1 0.00 0.28 0.01 72 1008.6
20260505181016 55 45 3.5 6.1 0.00 0.28 0.01 72 1008.4
20260505180016 55 45 3.5 6.1 0.01 0.28 0.01 70 1008.2
20260505175016 55 45 4.3 8.7 0.01 0.28 0.01 72 1008.1
20260505174016 56 90 2.6 6.1 0.01 0.28 0.01 70 1008.0
20260505173036 56 248 0.9 2.6 0.01 0.28 0.01 72 1008.0
20260505172018 55 203 3.5 6.1 0.01 0.28 0.01 73 1008.0
20260505171038 56 180 4.3 7.0 0.01 0.28 0.01 67 1008.2
20260505170018 57 315 5.2 13.9 0.00 0.28 0.00 60 1008.3
20260505165018 58 293 12.2 23.5 0.00 0.28 0.00 58 1008.3
20260505164018 60 203 6.1 12.2 0.00 0.28 0.00 54 1008.2
20260505163018 60 180 4.3 9.6 0.00 0.28 0.00 64 1008.0
20260505162018 60 180 5.2 10.4 0.00 0.28 0.00 67 1008.1
20260505161038 60 203 7.8 13.0 0.00 0.28 0.00 65 1008.2
20260505153018 62 180 6.1 14.8 0.00 0.28 0.00 59 1008.2
20260505152018 62 180 7.0 14.8 0.00 0.28 0.00 63 1008.3
20260505151018 61 180 6.1 10.4 0.00 0.28 0.00 64 1008.2
20260505125017 60 203 1.7 5.2 0.00 0.43 0.00 73 1009.5
20260505124017 59 113 1.7 6.1 0.00 0.43 0.00 73 1009.7
20260505123017 59 248 2.6 5.2 0.00 0.43 0.00 75 1009.8
20260505122057 59 158 2.6 7.0 0.00 0.43 0.00 76 1010.0
20260505121017 59 158 2.6 7.0 0.00 0.43 0.00 74 1010.1
20260505120037 58 180 3.5 6.1 0.00 0.43 0.00 77 1010.0
20260505115017 58 135 4.3 10.4 0.00 0.43 0.00 77 1010.1
20260505114017 58 180 3.5 7.8 0.00 0.43 0.00 76 1010.1
20260505113037 58 158 4.3 8.7 0.00 0.43 0.00 77 1010.2
20260505112017 58 158 2.6 6.1 0.00 0.43 0.00 78 1010.2
20260505111017 57 158 2.6 6.1 0.00 0.43 0.00 79 1010.1
20260505102017 55 180 3.5 7.8 0.00 0.43 0.00 81 1010.3
20260505101017 55 180 3.5 7.8 0.00 0.43 0.00 80 1010.5
20260505100017 55 180 1.7 4.3 0.00 0.43 0.00 79 1010.5
20260505095037 55 158 2.6 6.1 0.00 0.43 0.00 79 1010.4
20260505094017 55 113 1.7 5.2 0.00 0.43 0.00 80 1010.4
20260505093057 53 293 1.7 3.5 0.00 0.43 0.00 81 1010.4
20260505092017 53 113 1.7 4.3 0.00 0.43 0.00 81 1010.6
20260505091017 53 135 1.7 5.2 0.00 0.43 0.00 82 1010.5
20260505090037 52 135 1.7 6.1 0.00 0.43 0.00 83 1010.6
20260505085037 52 135 2.6 6.1 0.00 0.43 0.00 84 1010.6
20260505084017 52 135 2.6 6.1 0.00 0.43 0.00 83 1010.8
20260505083037 52 45 1.7 6.1 0.00 0.43 0.00 82 1010.6
20260505082017 52 90 0.9 4.3 0.00 0.43 0.00 84 1010.7
20260505081017 50 135 1.7 4.3 0.00 0.43 0.00 86 1010.7
20260505080018 49 135 2.6 7.0 0.00 0.43 0.00 88 1010.9
20260505075037 48 90 5.2 12.2 0.00 0.43 0.00 88 1010.2
20260505074037 47 90 5.2 9.6 0.00 0.43 0.00 89 1010.4
20260505073017 47 90 1.7 6.1 0.00 0.43 0.00 89 1010.6
20260505072057 47 68 2.6 5.2 0.00 0.43 0.00 89 1010.8
20260505071016 47 90 0.9 5.2 0.00 0.43 0.00 89 1010.9
20260505070016 47 158 0.9 2.6 0.00 0.43 0.00 90 1010.9
20260505065016 46 180 1.7 3.5 0.00 0.43 0.00 91 1010.8
20260505064017 46 158 1.7 3.5 0.00 0.43 0.00 91 1010.8
20260505063016 46 180 1.7 3.5 0.00 0.43 0.00 90 1010.7
20260505062016 46 135 0.9 2.6 0.00 0.43 0.00 90 1010.6
20260505061016 46 113 1.7 3.5 0.00 0.44 0.00 90 1010.6
20260505060016 46 90 4.3 7.8 0.00 0.46 0.00 90 1010.4
20260505055016 46 45 3.5 6.1 0.00 0.50 0.00 91 1010.4
20260505054016 46 45 0.9 3.5 0.00 0.51 0.00 92 1010.4
20260505053016 46 180 0.9 2.6 0.00 0.51 0.00 92 1010.5
20260505052016 45 248 0.9 3.5 0.00 0.51 0.00 93 1010.4
20260505051016 45 203 1.7 3.5 0.00 0.51 0.00 92 1010.3
20260505041018 45 68 2.6 5.2 0.00 0.51 0.00 90 1009.8
20260505040018 46 0.0 0.0 0.00 0.51 0.00 91 1009.9
20260505035018 46 0.0 0.0 0.00 0.51 0.00 91 1009.9
20260505034018 46 0.0 0.0 0.00 0.51 0.00 90 1010.1
20260505033018 46 23 1.7 5.2 0.00 0.51 0.00 90 1010.1
20260505032018 46 45 4.3 7.0 0.00 0.51 0.00 90 1010.1
20260505031018 46 45 3.5 5.2 0.00 0.51 0.00 90 1010.0
20260505030018 46 23 3.5 6.1 0.00 0.51 0.00 90 1010.0
20260505025018 47 90 1.7 4.3 0.00 0.51 0.00 90 1010.1
20260505024018 47 45 2.6 5.2 0.00 0.51 0.00 90 1010.5
20260505023018 48 90 1.7 4.3 0.00 0.51 0.00 90 1010.5
20260505022018 48 23 1.7 4.3 0.00 0.51 0.00 91 1010.6
20260505021018 48 23 0.9 3.5 0.00 0.51 0.00 92 1010.7
20260505020017 48 0 0.9 2.6 0.00 0.51 0.00 92 1010.7
20260505015017 48 0.0 0.9 0.00 0.51 0.00 92 1010.6
20260505014018 48 293 0.9 3.5 0.00 0.51 0.00 91 1010.7
20260505013017 48 0.0 0.0 0.00 0.51 0.00 90 1010.7
20260505012018 48 0.0 0.0 0.00 0.51 0.00 90 1010.6
20260505011018 48 248 0.9 2.6 0.00 0.51 0.00 90 1010.8
20260505010017 48 23 0.9 3.5 0.00 0.51 0.00 90 1010.6
20260505005017 48 270 0.9 3.5 0.00 0.51 0.00 91 1010.5
20260505004018 48 248 2.6 5.2 0.00 0.51 0.00 90 1010.7
20260505003018 48 45 4.3 8.7 0.00 0.51 0.00 89 1010.8
20260505002018 49 68 4.3 8.7 0.00 0.51 0.00 90 1010.9
20260505001018 50 45 3.5 7.0 0.00 0.51 0.00 90 1011.1
20260505000017 50 0 1.7 3.5 0.00 0.51 0.51 91 1011.1
20260504235017 50 45 1.7 3.5 0.00 0.51 0.51 92 1011.3
20260504234037 50 68 4.3 7.0 0.00 0.51 0.51 92 1011.2
20260504233018 50 68 4.3 8.7 0.00 0.51 0.51 93 1011.1
20260504232017 50 45 4.3 7.8 0.00 0.51 0.51 94 1011.1
20260504231037 50 68 3.5 6.1 0.00 0.51 0.51 94 1011.1
20260504230018 50 68 3.5 6.1 0.00 0.51 0.51 93 1011.1
20260504225017 50 158 0.9 2.6 0.00 0.51 0.51 93 1011.1
20260504224017 51 0.0 2.6 0.00 0.51 0.51 92 1010.8